owner,sensor,date,latitude,longitude,air_pressure(mBar),qcFlag 
COMPS,ioos:station:USF.COMPS:C12:1,2014-12-01T00:05:00Z,27.4980,-83.7220,1022.43,1111122 
COMPS,ioos:station:USF.COMPS:C12:1,2014-12-01T00:35:00Z,27.4980,-83.7220,1022.53,1111122 
COMPS,ioos:station:USF.COMPS:C12:1,2014-12-01T01:05:00Z,27.4980,-83.7220,1022.62,1111122 
COMPS,ioos:station:USF.COMPS:C12:1,2014-12-01T01:35:00Z,27.4980,-83.7220,1022.89,1111122 
COMPS,ioos:station:USF.COMPS:C12:1,2014-12-01T02:05:00Z,27.4980,-83.7220,1023.07,1111122 
COMPS,ioos:station:USF.COMPS:C12:1,2014-12-01T02:35:00Z,27.4980,-83.7220,1022.96,1111122 
COMPS,ioos:station:USF.COMPS:C12:1,2014-12-01T03:05:00Z,27.4980,-83.7220,1023.18,1111122 
COMPS,ioos:station:USF.COMPS:C12:1,2014-12-01T03:35:00Z,27.4980,-83.7220,1023.25,1111122 
COMPS,ioos:station:USF.COMPS:C12:1,2014-12-01T04:05:00Z,27.4980,-83.7220,1023.14,1111122 
COMPS,ioos:station:USF.COMPS:C12:1,2014-12-01T04:35:00Z,27.4980,-83.7220,1023.02,1111122 
COMPS,ioos:station:USF.COMPS:C12:1,2014-12-01T05:05:00Z,27.4980,-83.7220,1023.06,1111122 
COMPS,ioos:station:USF.COMPS:C12:1,2014-12-01T05:35:00Z,27.4980,-83.7220,1023.02,1111122 
COMPS,ioos:station:USF.COMPS:C12:1,2014-12-01T06:05:00Z,27.4980,-83.7220,1022.89,1111122 
COMPS,ioos:station:USF.COMPS:C12:1,2014-12-01T06:35:00Z,27.4980,-83.7220,1022.89,1111122 
COMPS,ioos:station:USF.COMPS:C12:1,2014-12-01T07:05:00Z,27.4980,-83.7220,1022.62,1111122 
COMPS,ioos:station:USF.COMPS:C12:1,2014-12-01T07:35:00Z,27.4980,-83.7220,1022.42,1111122 
COMPS,ioos:station:USF.COMPS:C12:1,2014-12-01T08:05:00Z,27.4980,-83.7220,1022.18,1111122 
COMPS,ioos:station:USF.COMPS:C12:1,2014-12-01T08:35:00Z,27.4980,-83.7220,1022.26,1111122 
COMPS,ioos:station:USF.COMPS:C12:1,2014-12-01T09:05:00Z,27.4980,-83.7220,1022.35,1111122 
COMPS,ioos:station:USF.COMPS:C12:1,2014-12-01T09:35:00Z,27.4980,-83.7220,1022.3,1111122 
COMPS,ioos:station:USF.COMPS:C12:1,2014-12-01T10:05:00Z,27.4980,-83.7220,1022.36,1111122 
COMPS,ioos:station:USF.COMPS:C12:1,2014-12-01T10:35:00Z,27.4980,-83.7220,1022.57,1111122 
COMPS,ioos:station:USF.COMPS:C12:1,2014-12-01T11:05:00Z,27.4980,-83.7220,1023.13,1111122 
COMPS,ioos:station:USF.COMPS:C12:1,2014-12-01T11:35:00Z,27.4980,-83.7220,1023.54,1111122 
COMPS,ioos:station:USF.COMPS:C12:1,2014-12-01T12:05:00Z,27.4980,-83.7220,1023.83,1111122 
COMPS,ioos:station:USF.COMPS:C12:1,2014-12-01T12:35:00Z,27.4980,-83.7220,1024.09,1111122 
COMPS,ioos:station:USF.COMPS:C12:1,2014-12-01T13:05:00Z,27.4980,-83.7220,1024.31,1111122 
COMPS,ioos:station:USF.COMPS:C12:1,2014-12-01T13:35:00Z,27.4980,-83.7220,1024.49,1111122 
COMPS,ioos:station:USF.COMPS:C12:1,2014-12-01T14:05:00Z,27.4980,-83.7220,1024.67,1111122 
COMPS,ioos:station:USF.COMPS:C12:1,2014-12-01T14:35:00Z,27.4980,-83.7220,1024.69,1111122 
COMPS,ioos:station:USF.COMPS:C12:1,2014-12-01T15:05:00Z,27.4980,-83.7220,1024.7,1111122 
COMPS,ioos:station:USF.COMPS:C12:1,2014-12-01T15:35:00Z,27.4980,-83.7220,1024.68,1111122 
COMPS,ioos:station:USF.COMPS:C12:1,2014-12-01T16:05:00Z,27.4980,-83.7220,1024.45,1111122 
COMPS,ioos:station:USF.COMPS:C12:1,2014-12-01T16:35:00Z,27.4980,-83.7220,1024.04,1111122 
COMPS,ioos:station:USF.COMPS:C12:1,2014-12-01T17:05:00Z,27.4980,-83.7220,1023.58,1111122 
COMPS,ioos:station:USF.COMPS:C12:1,2014-12-01T17:35:00Z,27.4980,-83.7220,1022.86,1111122 
COMPS,ioos:station:USF.COMPS:C12:1,2014-12-01T18:05:00Z,27.4980,-83.7220,1022.2,1111122 
COMPS,ioos:station:USF.COMPS:C12:1,2014-12-01T18:35:00Z,27.4980,-83.7220,1021.76,1111122 
COMPS,ioos:station:USF.COMPS:C12:1,2014-12-01T19:05:00Z,27.4980,-83.7220,1021.21,1111122 
COMPS,ioos:station:USF.COMPS:C12:1,2014-12-01T19:35:00Z,27.4980,-83.7220,1020.92,1111122 
COMPS,ioos:station:USF.COMPS:C12:1,2014-12-01T20:05:00Z,27.4980,-83.7220,1020.62,1111122 
COMPS,ioos:station:USF.COMPS:C12:1,2014-12-01T20:35:00Z,27.4980,-83.7220,1020.58,1111122 
COMPS,ioos:station:USF.COMPS:C12:1,2014-12-01T21:05:00Z,27.4980,-83.7220,1020.55,1111122 
COMPS,ioos:station:USF.COMPS:C12:1,2014-12-01T21:35:00Z,27.4980,-83.7220,1020.5,1111122 
COMPS,ioos:station:USF.COMPS:C12:1,2014-12-01T22:05:00Z,27.4980,-83.7220,1020.39,1111122 
COMPS,ioos:station:USF.COMPS:C12:1,2014-12-01T22:35:00Z,27.4980,-83.7220,1020.54,1111122 
COMPS,ioos:station:USF.COMPS:C12:1,2014-12-01T23:05:00Z,27.4980,-83.7220,1020.69,1111122 
COMPS,ioos:station:USF.COMPS:C12:1,2014-12-01T23:35:00Z,27.4980,-83.7220,1021.02,1111122 
COMPS,ioos:station:USF.COMPS:C12:1,2014-12-02T00:05:00Z,27.4980,-83.7220,1021.15,1111122 
COMPS,ioos:station:USF.COMPS:C12:1,2014-12-02T00:35:00Z,27.4980,-83.7220,1021.32,1111122 
COMPS,ioos:station:USF.COMPS:C12:1,2014-12-02T01:05:00Z,27.4980,-83.7220,1021.52,1111122 
COMPS,ioos:station:USF.COMPS:C12:1,2014-12-02T01:35:00Z,27.4980,-83.7220,1021.55,1111122 
COMPS,ioos:station:USF.COMPS:C12:1,2014-12-02T02:05:00Z,27.4980,-83.7220,1021.95,1111122 
COMPS,ioos:station:USF.COMPS:C12:1,2014-12-02T02:35:00Z,27.4980,-83.7220,1021.64,1111122 
COMPS,ioos:station:USF.COMPS:C12:1,2014-12-02T03:05:00Z,27.4980,-83.7220,1021.71,1111122 
COMPS,ioos:station:USF.COMPS:C12:1,2014-12-02T03:35:00Z,27.4980,-83.7220,1021.96,1111122 
COMPS,ioos:station:USF.COMPS:C12:1,2014-12-02T04:05:00Z,27.4980,-83.7220,1021.97,1111122 
COMPS,ioos:station:USF.COMPS:C12:1,2014-12-02T04:35:00Z,27.4980,-83.7220,1021.73,1111122 
COMPS,ioos:station:USF.COMPS:C12:1,2014-12-02T05:05:00Z,27.4980,-83.7220,1021.64,1111122 
COMPS,ioos:station:USF.COMPS:C12:1,2014-12-02T05:35:00Z,27.4980,-83.7220,1021.39,1111122 
COMPS,ioos:station:USF.COMPS:C12:1,2014-12-02T06:05:00Z,27.4980,-83.7220,1021.1,1111122 
COMPS,ioos:station:USF.COMPS:C12:1,2014-12-02T06:35:00Z,27.4980,-83.7220,1020.71,1111122 
COMPS,ioos:station:USF.COMPS:C12:1,2014-12-02T07:05:00Z,27.4980,-83.7220,1020.71,1111122 
COMPS,ioos:station:USF.COMPS:C12:1,2014-12-02T07:35:00Z,27.4980,-83.7220,1020.66,1111122 
COMPS,ioos:station:USF.COMPS:C12:1,2014-12-02T08:05:00Z,27.4980,-83.7220,1020.46,1111122 
COMPS,ioos:station:USF.COMPS:C12:1,2014-12-02T08:35:00Z,27.4980,-83.7220,1020.18,1111122 
COMPS,ioos:station:USF.COMPS:C12:1,2014-12-02T09:05:00Z,27.4980,-83.7220,1019.85,1111122 
COMPS,ioos:station:USF.COMPS:C12:1,2014-12-02T09:35:00Z,27.4980,-83.7220,1019.64,1111122 
COMPS,ioos:station:USF.COMPS:C12:1,2014-12-02T10:05:00Z,27.4980,-83.7220,1019.62,1111122 
COMPS,ioos:station:USF.COMPS:C12:1,2014-12-02T10:35:00Z,27.4980,-83.7220,1019.84,1111122 
COMPS,ioos:station:USF.COMPS:C12:1,2014-12-02T11:05:00Z,27.4980,-83.7220,1020.37,1111122 
COMPS,ioos:station:USF.COMPS:C12:1,2014-12-02T11:35:00Z,27.4980,-83.7220,1020.41,1111122 
COMPS,ioos:station:USF.COMPS:C12:1,2014-12-02T12:05:00Z,27.4980,-83.7220,1020.57,1111122 
COMPS,ioos:station:USF.COMPS:C12:1,2014-12-02T12:35:00Z,27.4980,-83.7220,1020.75,1111122 
COMPS,ioos:station:USF.COMPS:C12:1,2014-12-02T13:05:00Z,27.4980,-83.7220,1020.74,1111122 
COMPS,ioos:station:USF.COMPS:C12:1,2014-12-02T13:35:00Z,27.4980,-83.7220,1021.12,1111122 
COMPS,ioos:station:USF.COMPS:C12:1,2014-12-02T14:05:00Z,27.4980,-83.7220,1021.2,1111122 
COMPS,ioos:station:USF.COMPS:C12:1,2014-12-02T14:35:00Z,27.4980,-83.7220,1021.57,1111122 
COMPS,ioos:station:USF.COMPS:C12:1,2014-12-02T15:05:00Z,27.4980,-83.7220,1021.56,1111122 
COMPS,ioos:station:USF.COMPS:C12:1,2014-12-02T15:35:00Z,27.4980,-83.7220,1021.28,1111122 
COMPS,ioos:station:USF.COMPS:C12:1,2014-12-02T16:05:00Z,27.4980,-83.7220,1020.68,1111122 
COMPS,ioos:station:USF.COMPS:C12:1,2014-12-02T16:35:00Z,27.4980,-83.7220,1020.78,1111122 
COMPS,ioos:station:USF.COMPS:C12:1,2014-12-02T17:05:00Z,27.4980,-83.7220,1020.53,1111122 
COMPS,ioos:station:USF.COMPS:C12:1,2014-12-02T17:35:00Z,27.4980,-83.7220,1020.11,1111122 
COMPS,ioos:station:USF.COMPS:C12:1,2014-12-02T18:05:00Z,27.4980,-83.7220,1019.52,1111122 
COMPS,ioos:station:USF.COMPS:C12:1,2014-12-02T18:35:00Z,27.4980,-83.7220,1019.06,1111122 
COMPS,ioos:station:USF.COMPS:C12:1,2014-12-02T19:05:00Z,27.4980,-83.7220,1018.44,1111122 
COMPS,ioos:station:USF.COMPS:C12:1,2014-12-02T19:35:00Z,27.4980,-83.7220,1018.1,1111122 
COMPS,ioos:station:USF.COMPS:C12:1,2014-12-02T20:05:00Z,27.4980,-83.7220,1018.14,1111122 
COMPS,ioos:station:USF.COMPS:C12:1,2014-12-02T20:35:00Z,27.4980,-83.7220,1017.8,1111122 
COMPS,ioos:station:USF.COMPS:C12:1,2014-12-02T21:05:00Z,27.4980,-83.7220,1017.79,1111122 
COMPS,ioos:station:USF.COMPS:C12:1,2014-12-02T21:35:00Z,27.4980,-83.7220,1017.81,1111122 
COMPS,ioos:station:USF.COMPS:C12:1,2014-12-02T22:05:00Z,27.4980,-83.7220,1017.81,1111122 
COMPS,ioos:station:USF.COMPS:C12:1,2014-12-02T22:35:00Z,27.4980,-83.7220,1018.15,1111122 
COMPS,ioos:station:USF.COMPS:C12:1,2014-12-02T23:05:00Z,27.4980,-83.7220,1018.33,1111122 
COMPS,ioos:station:USF.COMPS:C12:1,2014-12-02T23:35:00Z,27.4980,-83.7220,1018.7,1111122 
COMPS,ioos:station:USF.COMPS:C12:1,2014-12-03T00:05:00Z,27.4980,-83.7220,1018.89,1111122 
COMPS,ioos:station:USF.COMPS:C12:1,2014-12-03T00:35:00Z,27.4980,-83.7220,1018.93,1111122 
COMPS,ioos:station:USF.COMPS:C12:1,2014-12-03T01:05:00Z,27.4980,-83.7220,1018.97,1111122 
COMPS,ioos:station:USF.COMPS:C12:1,2014-12-03T01:35:00Z,27.4980,-83.7220,1019.12,1111122 
COMPS,ioos:station:USF.COMPS:C12:1,2014-12-03T02:05:00Z,27.4980,-83.7220,1019.24,1111122 
COMPS,ioos:station:USF.COMPS:C12:1,2014-12-03T02:35:00Z,27.4980,-83.7220,1019.28,1111122 
COMPS,ioos:station:USF.COMPS:C12:1,2014-12-03T03:05:00Z,27.4980,-83.7220,1019.52,1111122 
COMPS,ioos:station:USF.COMPS:C12:1,2014-12-03T03:35:00Z,27.4980,-83.7220,1019.75,1111122 
COMPS,ioos:station:USF.COMPS:C12:1,2014-12-03T04:05:00Z,27.4980,-83.7220,1019.71,1111122 
COMPS,ioos:station:USF.COMPS:C12:1,2014-12-03T04:35:00Z,27.4980,-83.7220,1019.4,1111122 
COMPS,ioos:station:USF.COMPS:C12:1,2014-12-03T05:05:00Z,27.4980,-83.7220,1019.31,1111122 
COMPS,ioos:station:USF.COMPS:C12:1,2014-12-03T05:35:00Z,27.4980,-83.7220,1019.24,1111122 
COMPS,ioos:station:USF.COMPS:C12:1,2014-12-03T06:05:00Z,27.4980,-83.7220,1018.93,1111122 
COMPS,ioos:station:USF.COMPS:C12:1,2014-12-03T06:35:00Z,27.4980,-83.7220,1018.9,1111122 
COMPS,ioos:station:USF.COMPS:C12:1,2014-12-03T07:05:00Z,27.4980,-83.7220,1018.8,1111122 
COMPS,ioos:station:USF.COMPS:C12:1,2014-12-03T07:35:00Z,27.4980,-83.7220,1018.61,1111122 
COMPS,ioos:station:USF.COMPS:C12:1,2014-12-03T08:05:00Z,27.4980,-83.7220,1018.43,1111122 
COMPS,ioos:station:USF.COMPS:C12:1,2014-12-03T08:35:00Z,27.4980,-83.7220,1018.29,1111122 
COMPS,ioos:station:USF.COMPS:C12:1,2014-12-03T09:05:00Z,27.4980,-83.7220,1018.08,1111122 
COMPS,ioos:station:USF.COMPS:C12:1,2014-12-03T09:35:00Z,27.4980,-83.7220,1018.21,1111122 
COMPS,ioos:station:USF.COMPS:C12:1,2014-12-03T10:05:00Z,27.4980,-83.7220,1018.86,1111122 
COMPS,ioos:station:USF.COMPS:C12:1,2014-12-03T10:35:00Z,27.4980,-83.7220,1018.9,1111122 
COMPS,ioos:station:USF.COMPS:C12:1,2014-12-03T11:05:00Z,27.4980,-83.7220,1018.85,1111122 
COMPS,ioos:station:USF.COMPS:C12:1,2014-12-03T11:35:00Z,27.4980,-83.7220,1018.87,1111122 
COMPS,ioos:station:USF.COMPS:C12:1,2014-12-03T12:05:00Z,27.4980,-83.7220,1019.25,1111122 
COMPS,ioos:station:USF.COMPS:C12:1,2014-12-03T12:35:00Z,27.4980,-83.7220,1019.31,1111122 
COMPS,ioos:station:USF.COMPS:C12:1,2014-12-03T13:05:00Z,27.4980,-83.7220,1019.67,1111122 
COMPS,ioos:station:USF.COMPS:C12:1,2014-12-03T13:35:00Z,27.4980,-83.7220,1019.86,1111122 
COMPS,ioos:station:USF.COMPS:C12:1,2014-12-03T14:05:00Z,27.4980,-83.7220,1020.3,1111122 
COMPS,ioos:station:USF.COMPS:C12:1,2014-12-03T14:35:00Z,27.4980,-83.7220,1020.5,1111122 
COMPS,ioos:station:USF.COMPS:C12:1,2014-12-03T15:05:00Z,27.4980,-83.7220,1020.32,1111122 
COMPS,ioos:station:USF.COMPS:C12:1,2014-12-03T15:35:00Z,27.4980,-83.7220,1020.29,1111122 
COMPS,ioos:station:USF.COMPS:C12:1,2014-12-03T16:05:00Z,27.4980,-83.7220,1020.47,1111122 
COMPS,ioos:station:USF.COMPS:C12:1,2014-12-03T16:35:00Z,27.4980,-83.7220,1020.23,1111122 
COMPS,ioos:station:USF.COMPS:C12:1,2014-12-03T17:05:00Z,27.4980,-83.7220,1020.06,1111122 
COMPS,ioos:station:USF.COMPS:C12:1,2014-12-03T17:35:00Z,27.4980,-83.7220,1019.34,1111122 
COMPS,ioos:station:USF.COMPS:C12:1,2014-12-03T18:05:00Z,27.4980,-83.7220,1018.84,1111122 
COMPS,ioos:station:USF.COMPS:C12:1,2014-12-03T18:35:00Z,27.4980,-83.7220,1018.27,1111122 
COMPS,ioos:station:USF.COMPS:C12:1,2014-12-03T19:05:00Z,27.4980,-83.7220,1018.09,1111122 
COMPS,ioos:station:USF.COMPS:C12:1,2014-12-03T19:35:00Z,27.4980,-83.7220,1017.82,1111122 
COMPS,ioos:station:USF.COMPS:C12:1,2014-12-03T20:05:00Z,27.4980,-83.7220,1017.77,1111122 
COMPS,ioos:station:USF.COMPS:C12:1,2014-12-03T20:35:00Z,27.4980,-83.7220,1017.68,1111122 
COMPS,ioos:station:USF.COMPS:C12:1,2014-12-03T21:05:00Z,27.4980,-83.7220,1017.78,1111122 
COMPS,ioos:station:USF.COMPS:C12:1,2014-12-03T21:35:00Z,27.4980,-83.7220,1017.78,1111122 
COMPS,ioos:station:USF.COMPS:C12:1,2014-12-03T22:05:00Z,27.4980,-83.7220,1017.72,1111122 
COMPS,ioos:station:USF.COMPS:C12:1,2014-12-03T22:35:00Z,27.4980,-83.7220,1017.78,1111122 
COMPS,ioos:station:USF.COMPS:C12:1,2014-12-03T23:05:00Z,27.4980,-83.7220,1018.29,1111122 
COMPS,ioos:station:USF.COMPS:C12:1,2014-12-03T23:35:00Z,27.4980,-83.7220,1018.62,1111122 
COMPS,ioos:station:USF.COMPS:C12:1,2014-12-04T00:05:00Z,27.4980,-83.7220,1018.77,1111122 
COMPS,ioos:station:USF.COMPS:C12:1,2014-12-04T00:35:00Z,27.4980,-83.7220,1018.91,1111122 
COMPS,ioos:station:USF.COMPS:C12:1,2014-12-04T01:05:00Z,27.4980,-83.7220,1019.03,1111122 
COMPS,ioos:station:USF.COMPS:C12:1,2014-12-04T01:35:00Z,27.4980,-83.7220,1019.18,1111122 
COMPS,ioos:station:USF.COMPS:C12:1,2014-12-04T02:05:00Z,27.4980,-83.7220,1019.34,1111122 
COMPS,ioos:station:USF.COMPS:C12:1,2014-12-04T02:35:00Z,27.4980,-83.7220,1019.26,1111122 
COMPS,ioos:station:USF.COMPS:C12:1,2014-12-04T03:05:00Z,27.4980,-83.7220,1019.43,1111122 
COMPS,ioos:station:USF.COMPS:C12:1,2014-12-04T03:35:00Z,27.4980,-83.7220,1019.76,1111122 
COMPS,ioos:station:USF.COMPS:C12:1,2014-12-04T04:05:00Z,27.4980,-83.7220,1019.58,1111122 
COMPS,ioos:station:USF.COMPS:C12:1,2014-12-04T04:35:00Z,27.4980,-83.7220,1019.48,1111122 
COMPS,ioos:station:USF.COMPS:C12:1,2014-12-04T05:05:00Z,27.4980,-83.7220,1019.37,1111122 
COMPS,ioos:station:USF.COMPS:C12:1,2014-12-04T05:35:00Z,27.4980,-83.7220,1019.43,1111122 
COMPS,ioos:station:USF.COMPS:C12:1,2014-12-04T06:05:00Z,27.4980,-83.7220,1019.26,1111122 
COMPS,ioos:station:USF.COMPS:C12:1,2014-12-04T06:35:00Z,27.4980,-83.7220,1019.27,1111122 
COMPS,ioos:station:USF.COMPS:C12:1,2014-12-04T07:05:00Z,27.4980,-83.7220,1019.2,1111122 
COMPS,ioos:station:USF.COMPS:C12:1,2014-12-04T07:35:00Z,27.4980,-83.7220,1019.28,1111122 
COMPS,ioos:station:USF.COMPS:C12:1,2014-12-04T08:05:00Z,27.4980,-83.7220,1019.3,1111122 
COMPS,ioos:station:USF.COMPS:C12:1,2014-12-04T08:35:00Z,27.4980,-83.7220,1019.38,1111122 
COMPS,ioos:station:USF.COMPS:C12:1,2014-12-04T09:05:00Z,27.4980,-83.7220,1019.33,1111122 
COMPS,ioos:station:USF.COMPS:C12:1,2014-12-04T09:35:00Z,27.4980,-83.7220,1019.51,1111122 
COMPS,ioos:station:USF.COMPS:C12:1,2014-12-04T10:05:00Z,27.4980,-83.7220,1019.33,1111122 
COMPS,ioos:station:USF.COMPS:C12:1,2014-12-04T10:35:00Z,27.4980,-83.7220,1019.3,1111122 
COMPS,ioos:station:USF.COMPS:C12:1,2014-12-04T11:05:00Z,27.4980,-83.7220,1019.34,1111122 
COMPS,ioos:station:USF.COMPS:C12:1,2014-12-04T11:35:00Z,27.4980,-83.7220,1019.54,1111122 
COMPS,ioos:station:USF.COMPS:C12:1,2014-12-04T12:05:00Z,27.4980,-83.7220,1019.95,1111122 
COMPS,ioos:station:USF.COMPS:C12:1,2014-12-04T12:35:00Z,27.4980,-83.7220,1020.21,1111122 
COMPS,ioos:station:USF.COMPS:C12:1,2014-12-04T13:05:00Z,27.4980,-83.7220,1020.4,1111122 
COMPS,ioos:station:USF.COMPS:C12:1,2014-12-04T13:35:00Z,27.4980,-83.7220,1020.91,1111122 
COMPS,ioos:station:USF.COMPS:C12:1,2014-12-04T14:05:00Z,27.4980,-83.7220,1021.06,1111122 
COMPS,ioos:station:USF.COMPS:C12:1,2014-12-04T14:35:00Z,27.4980,-83.7220,1021.28,1111122 
COMPS,ioos:station:USF.COMPS:C12:1,2014-12-04T15:05:00Z,27.4980,-83.7220,1021.42,1111122 
COMPS,ioos:station:USF.COMPS:C12:1,2014-12-04T15:35:00Z,27.4980,-83.7220,1021.21,1111122 
COMPS,ioos:station:USF.COMPS:C12:1,2014-12-04T16:05:00Z,27.4980,-83.7220,1020.77,1111122 
COMPS,ioos:station:USF.COMPS:C12:1,2014-12-04T16:35:00Z,27.4980,-83.7220,1020.32,1111122 
COMPS,ioos:station:USF.COMPS:C12:1,2014-12-04T17:05:00Z,27.4980,-83.7220,1020.03,1111122 
COMPS,ioos:station:USF.COMPS:C12:1,2014-12-04T17:35:00Z,27.4980,-83.7220,1019.67,1111122 
COMPS,ioos:station:USF.COMPS:C12:1,2014-12-04T18:05:00Z,27.4980,-83.7220,1019.2,1111122 
COMPS,ioos:station:USF.COMPS:C12:1,2014-12-04T18:35:00Z,27.4980,-83.7220,1018.94,1111122 
COMPS,ioos:station:USF.COMPS:C12:1,2014-12-04T19:05:00Z,27.4980,-83.7220,1018.69,1111122 
COMPS,ioos:station:USF.COMPS:C12:1,2014-12-04T19:35:00Z,27.4980,-83.7220,1018.47,1111122 
COMPS,ioos:station:USF.COMPS:C12:1,2014-12-04T20:05:00Z,27.4980,-83.7220,1018.29,1111122 
COMPS,ioos:station:USF.COMPS:C12:1,2014-12-04T20:35:00Z,27.4980,-83.7220,1018.09,1111122 
COMPS,ioos:station:USF.COMPS:C12:1,2014-12-04T21:05:00Z,27.4980,-83.7220,1018.22,1111122 
COMPS,ioos:station:USF.COMPS:C12:1,2014-12-04T21:35:00Z,27.4980,-83.7220,1018.34,1111122 
COMPS,ioos:station:USF.COMPS:C12:1,2014-12-04T22:05:00Z,27.4980,-83.7220,1018.64,1111122 
COMPS,ioos:station:USF.COMPS:C12:1,2014-12-04T22:35:00Z,27.4980,-83.7220,1018.66,1111122 
COMPS,ioos:station:USF.COMPS:C12:1,2014-12-04T23:05:00Z,27.4980,-83.7220,1018.86,1111122 
COMPS,ioos:station:USF.COMPS:C12:1,2014-12-04T23:35:00Z,27.4980,-83.7220,1019.2,1111122 
COMPS,ioos:station:USF.COMPS:C12:1,2014-12-05T00:05:00Z,27.4980,-83.7220,1019.48,1111122 
COMPS,ioos:station:USF.COMPS:C12:1,2014-12-05T00:35:00Z,27.4980,-83.7220,1019.73,1111122 
COMPS,ioos:station:USF.COMPS:C12:1,2014-12-05T01:05:00Z,27.4980,-83.7220,1019.8,1111122 
COMPS,ioos:station:USF.COMPS:C12:1,2014-12-05T01:35:00Z,27.4980,-83.7220,1019.99,1111122 
COMPS,ioos:station:USF.COMPS:C12:1,2014-12-05T02:05:00Z,27.4980,-83.7220,1020.06,1111122 
COMPS,ioos:station:USF.COMPS:C12:1,2014-12-05T02:35:00Z,27.4980,-83.7220,1020.07,1111122 
COMPS,ioos:station:USF.COMPS:C12:1,2014-12-05T03:05:00Z,27.4980,-83.7220,1020.18,1111122 
COMPS,ioos:station:USF.COMPS:C12:1,2014-12-05T03:35:00Z,27.4980,-83.7220,1020.07,1111122 
COMPS,ioos:station:USF.COMPS:C12:1,2014-12-05T04:05:00Z,27.4980,-83.7220,1020.03,1111122 
COMPS,ioos:station:USF.COMPS:C12:1,2014-12-05T04:35:00Z,27.4980,-83.7220,1019.77,1111122 
COMPS,ioos:station:USF.COMPS:C12:1,2014-12-05T05:05:00Z,27.4980,-83.7220,1019.72,1111122 
COMPS,ioos:station:USF.COMPS:C12:1,2014-12-05T05:35:00Z,27.4980,-83.7220,1019.74,1111122 
COMPS,ioos:station:USF.COMPS:C12:1,2014-12-05T06:05:00Z,27.4980,-83.7220,1019.68,1111122 
COMPS,ioos:station:USF.COMPS:C12:1,2014-12-05T06:35:00Z,27.4980,-83.7220,1019.59,1111122 
COMPS,ioos:station:USF.COMPS:C12:1,2014-12-05T07:05:00Z,27.4980,-83.7220,1019.7,1111122 
COMPS,ioos:station:USF.COMPS:C12:1,2014-12-05T07:35:00Z,27.4980,-83.7220,1019.66,1111122 
COMPS,ioos:station:USF.COMPS:C12:1,2014-12-05T08:05:00Z,27.4980,-83.7220,1019.68,1111122 
COMPS,ioos:station:USF.COMPS:C12:1,2014-12-05T08:35:00Z,27.4980,-83.7220,1019.61,1111122 
COMPS,ioos:station:USF.COMPS:C12:1,2014-12-05T09:05:00Z,27.4980,-83.7220,1019.79,1111122 
COMPS,ioos:station:USF.COMPS:C12:1,2014-12-05T09:35:00Z,27.4980,-83.7220,1019.82,1111122 
COMPS,ioos:station:USF.COMPS:C12:1,2014-12-05T10:05:00Z,27.4980,-83.7220,1019.82,1111122 
COMPS,ioos:station:USF.COMPS:C12:1,2014-12-05T10:35:00Z,27.4980,-83.7220,1020.06,1111122 
COMPS,ioos:station:USF.COMPS:C12:1,2014-12-05T11:05:00Z,27.4980,-83.7220,1020.21,1111122 
COMPS,ioos:station:USF.COMPS:C12:1,2014-12-05T11:35:00Z,27.4980,-83.7220,1020.56,1111122 
COMPS,ioos:station:USF.COMPS:C12:1,2014-12-05T12:05:00Z,27.4980,-83.7220,1020.81,1111122 
COMPS,ioos:station:USF.COMPS:C12:1,2014-12-05T12:35:00Z,27.4980,-83.7220,1021.14,1111122 
COMPS,ioos:station:USF.COMPS:C12:1,2014-12-05T13:05:00Z,27.4980,-83.7220,1021.25,1111122 
COMPS,ioos:station:USF.COMPS:C12:1,2014-12-05T13:35:00Z,27.4980,-83.7220,1021.48,1111122 
COMPS,ioos:station:USF.COMPS:C12:1,2014-12-05T14:05:00Z,27.4980,-83.7220,1021.61,1111122 
COMPS,ioos:station:USF.COMPS:C12:1,2014-12-05T14:35:00Z,27.4980,-83.7220,1021.72,1111122 
COMPS,ioos:station:USF.COMPS:C12:1,2014-12-05T15:05:00Z,27.4980,-83.7220,1021.85,1111122 
COMPS,ioos:station:USF.COMPS:C12:1,2014-12-05T15:35:00Z,27.4980,-83.7220,1021.89,1111122 
COMPS,ioos:station:USF.COMPS:C12:1,2014-12-05T16:05:00Z,27.4980,-83.7220,1021.75,1111122 
COMPS,ioos:station:USF.COMPS:C12:1,2014-12-05T16:35:00Z,27.4980,-83.7220,1021.77,1111122 
COMPS,ioos:station:USF.COMPS:C12:1,2014-12-05T17:05:00Z,27.4980,-83.7220,1021.3,1111122 
COMPS,ioos:station:USF.COMPS:C12:1,2014-12-05T17:35:00Z,27.4980,-83.7220,1020.85,1111122 
COMPS,ioos:station:USF.COMPS:C12:1,2014-12-05T18:05:00Z,27.4980,-83.7220,1020.56,1111122 
COMPS,ioos:station:USF.COMPS:C12:1,2014-12-05T18:35:00Z,27.4980,-83.7220,1020.01,1111122 
COMPS,ioos:station:USF.COMPS:C12:1,2014-12-05T19:05:00Z,27.4980,-83.7220,1019.67,1111122 
COMPS,ioos:station:USF.COMPS:C12:1,2014-12-05T19:35:00Z,27.4980,-83.7220,1019.49,1111122 
COMPS,ioos:station:USF.COMPS:C12:1,2014-12-05T20:05:00Z,27.4980,-83.7220,1019.34,1111122 
COMPS,ioos:station:USF.COMPS:C12:1,2014-12-05T20:35:00Z,27.4980,-83.7220,1019.38,1111122 
COMPS,ioos:station:USF.COMPS:C12:1,2014-12-05T21:05:00Z,27.4980,-83.7220,1019.49,1111122 
COMPS,ioos:station:USF.COMPS:C12:1,2014-12-05T21:35:00Z,27.4980,-83.7220,1019.64,1111122 
COMPS,ioos:station:USF.COMPS:C12:1,2014-12-05T22:05:00Z,27.4980,-83.7220,1019.74,1111122 
COMPS,ioos:station:USF.COMPS:C12:1,2014-12-05T22:35:00Z,27.4980,-83.7220,1019.91,1111122 
COMPS,ioos:station:USF.COMPS:C12:1,2014-12-05T23:05:00Z,27.4980,-83.7220,1019.92,1111122 
COMPS,ioos:station:USF.COMPS:C12:1,2014-12-05T23:35:00Z,27.4980,-83.7220,1020.27,1111122 
COMPS,ioos:station:USF.COMPS:C12:1,2014-12-06T00:05:00Z,27.4980,-83.7220,1020.59,1111122 
COMPS,ioos:station:USF.COMPS:C12:1,2014-12-06T00:35:00Z,27.4980,-83.7220,1020.59,1111122 
COMPS,ioos:station:USF.COMPS:C12:1,2014-12-06T01:05:00Z,27.4980,-83.7220,1020.7,1111122 
COMPS,ioos:station:USF.COMPS:C12:1,2014-12-06T01:35:00Z,27.4980,-83.7220,1020.82,1111122 
COMPS,ioos:station:USF.COMPS:C12:1,2014-12-06T02:05:00Z,27.4980,-83.7220,1020.91,1111122 
COMPS,ioos:station:USF.COMPS:C12:1,2014-12-06T02:35:00Z,27.4980,-83.7220,1020.83,1111122 
COMPS,ioos:station:USF.COMPS:C12:1,2014-12-06T03:05:00Z,27.4980,-83.7220,1020.76,1111122 
COMPS,ioos:station:USF.COMPS:C12:1,2014-12-06T03:35:00Z,27.4980,-83.7220,1020.57,1111122 
COMPS,ioos:station:USF.COMPS:C12:1,2014-12-06T04:05:00Z,27.4980,-83.7220,1020.52,1111122 
COMPS,ioos:station:USF.COMPS:C12:1,2014-12-06T04:35:00Z,27.4980,-83.7220,1020.1,1111122 
COMPS,ioos:station:USF.COMPS:C12:1,2014-12-06T05:05:00Z,27.4980,-83.7220,1019.79,1111122 
COMPS,ioos:station:USF.COMPS:C12:1,2014-12-06T05:35:00Z,27.4980,-83.7220,1019.73,1111122 
COMPS,ioos:station:USF.COMPS:C12:1,2014-12-06T06:05:00Z,27.4980,-83.7220,1019.64,1111122 
COMPS,ioos:station:USF.COMPS:C12:1,2014-12-06T06:35:00Z,27.4980,-83.7220,1019.69,1111122 
COMPS,ioos:station:USF.COMPS:C12:1,2014-12-06T07:05:00Z,27.4980,-83.7220,1019.76,1111122 
COMPS,ioos:station:USF.COMPS:C12:1,2014-12-06T07:35:00Z,27.4980,-83.7220,1019.8,1111122 
COMPS,ioos:station:USF.COMPS:C12:1,2014-12-06T08:05:00Z,27.4980,-83.7220,1020.0,1111122 
COMPS,ioos:station:USF.COMPS:C12:1,2014-12-06T08:35:00Z,27.4980,-83.7220,1020.07,1111122 
COMPS,ioos:station:USF.COMPS:C12:1,2014-12-06T09:05:00Z,27.4980,-83.7220,1020.07,1111122 
COMPS,ioos:station:USF.COMPS:C12:1,2014-12-06T09:35:00Z,27.4980,-83.7220,1020.03,1111122 
COMPS,ioos:station:USF.COMPS:C12:1,2014-12-06T10:05:00Z,27.4980,-83.7220,1020.06,1111122 
COMPS,ioos:station:USF.COMPS:C12:1,2014-12-06T10:35:00Z,27.4980,-83.7220,1020.06,1111122 
COMPS,ioos:station:USF.COMPS:C12:1,2014-12-06T11:05:00Z,27.4980,-83.7220,1020.29,1111122 
COMPS,ioos:station:USF.COMPS:C12:1,2014-12-06T11:35:00Z,27.4980,-83.7220,1020.51,1111122 
COMPS,ioos:station:USF.COMPS:C12:1,2014-12-06T12:05:00Z,27.4980,-83.7220,1020.64,1111122 
COMPS,ioos:station:USF.COMPS:C12:1,2014-12-06T12:35:00Z,27.4980,-83.7220,1020.58,1111122 